Content
SEND FEEDBACK

Daily
Averages
Monthly
Summary
United States of America

UMATAC, GUAM


Home > North America > United States > Guam
Elevation: 190 feet     Latitude: 13 17N     Longitude: 144 40E

WEATHER
 
SELECT A DAY
Number of Records: 357,509;   Date Range: 1/1/95 - 12/28/14
 
SHARE

PRINT THIS DATA

[ ← Previous Day ]
WEATHER ALMANAC - MARCH 22, 2013
[ Next Day → ]
[ °C ]   °F
Weather ElementAverageHighLow
Temperature79.6 °F84.7 °F (1:55 pm)77 °F (12:57 am)
Dewpoint73 °F75.2 °F (10:41 am)69.8 °F (3:35 am)
Humidity80.1 %94 % (10:29 pm)70 % (11:34 am)
Barometer29.85 in29.90 in (9:55 pm)29.80 in (3:31 pm)
Wind Speed15.9 mph19.6 mph (8:55 am)
Wind Gust24.2 mph (9:55 am)
Weather ElementAverage
Visibility10 mi
Wind DirectionNE (47.6 °)

Weather ElementTotal
Precipitation---
Cooling Degree Days15.9 (Base 65)
Growing Degree Days30.9 (Base 50)
Averaged from 104 records on March 22, 2013
WEATHER CONDITIONS BREAKOUT
WIND DIRECTION BREAKOUT
WEATHER BY HOUR - MARCH 22, 2013
[ °C ]   °F
Local TimeTemperatureDewpointHumidityBarometerVisibilityWind DirectionWind SpeedGust SpeedPrecipitationEventsConditions
12:55 AM77.5 °F71.1 °F80 %29.85 in10.0 miENE (60°)13.8 mphMostly Cloudy
12:57 AM77.0 °F71.6 °F83 %29.85 in10.0 miENE (60°)13.8 mphScattered Clouds
1:55 AM77.4 °F70.0 °F78 %29.85 in10.0 miNE (50°)13.8 mphScattered Clouds
2:33 AM77.0 °F71.6 °F83 %29.84 in10.0 miNE (40°)11.5 mphMostly Cloudy
2:37 AM77.0 °F71.6 °F83 %29.84 in10.0 miNE (40°)13.8 mphMostly Cloudy
2:38 AM77.0 °F71.6 °F83 %29.84 in10.0 miNE (40°)13.8 mphMostly Cloudy
2:55 AM77.7 °F71.2 °F80 %29.83 in10.0 miNE (40°)12.7 mphMostly Cloudy
2:59 AM77.0 °F71.6 °F83 %29.83 in10.0 miNNE (30°)13.8 mphMostly Cloudy
3:20 AM77.0 °F71.6 °F83 %29.83 in10.0 miNNE (30°)11.5 mphMostly Cloudy
3:29 AM77.0 °F71.6 °F83 %29.83 in10.0 miNE (40°)15.0 mphMostly Cloudy
3:35 AM77.0 °F69.8 °F78 %29.83 in10.0 miNE (40°)15.0 mphMostly Cloudy
3:36 AM77.0 °F69.8 °F78 %29.83 in10.0 miNE (40°)15.0 mphMostly Cloudy
3:37 AM77.0 °F69.8 °F78 %29.83 in10.0 miNE (40°)15.0 mphMostly Cloudy
3:52 AM77.0 °F69.8 °F78 %29.83 in10.0 miNNE (30°)11.5 mphScattered Clouds
3:55 AM77.4 °F70.3 °F79 %29.83 in10.0 miNNE (30°)13.8 mphScattered Clouds
3:58 AM77.0 °F69.8 °F78 %29.83 in10.0 miNE (40°)15.0 mphMostly Cloudy
4:52 AM77.0 °F69.8 °F78 %29.84 in10.0 miNNE (30°)13.8 mphScattered Clouds
4:55 AM77.2 °F70.5 °F80 %29.83 in10.0 miNNE (30°)13.8 mphScattered Clouds
5:27 AM77.0 °F69.8 °F78 %29.83 in10.0 miNNE (30°)15.0 mphMostly Cloudy
5:30 AM77.0 °F69.8 °F78 %29.83 in10.0 miNE (40°)13.8 mphScattered Clouds
5:55 AM77.0 °F70.9 °F81 %29.84 in10.0 miNE (40°)15.0 mphScattered Clouds
6:55 AM77.2 °F71.8 °F83 %29.85 in10.0 miNE (40°)15.0 mphPartly Cloudy
7:10 AM77.0 °F71.6 °F83 %29.86 in10.0 miNNE (30°)15.0 mphMostly Cloudy
7:37 AM78.8 °F73.4 °F83 %29.87 in10.0 miNNE (30°)11.5 mphScattered Clouds
7:38 AM78.8 °F73.4 °F83 %29.87 in10.0 miNNE (30°)11.5 mphMostly Cloudy
7:39 AM78.8 °F73.4 °F83 %29.87 in10.0 miNNE (30°)12.7 mphMostly Cloudy
7:46 AM78.8 °F71.6 °F78 %29.87 in10.0 miNE (40°)16.1 mphMostly Cloudy
7:55 AM79.3 °F72.7 °F80 %29.87 in10.0 miNNE (30°)15.0 mphMostly Cloudy
8:17 AM80.6 °F73.4 °F79 %29.88 in10.0 miNE (40°)15.0 mphMostly Cloudy
8:23 AM80.6 °F73.4 °F79 %29.88 in10.0 miNE (40°)15.0 mphMostly Cloudy
8:26 AM80.6 °F73.4 °F79 %29.88 in10.0 miNE (40°)16.1 mphMostly Cloudy
8:36 AM80.6 °F71.6 °F74 %29.88 in10.0 miNE (40°)18.4 mphMostly Cloudy
8:45 AM80.6 °F73.4 °F79 %29.88 in10.0 miNE (40°)18.4 mphMostly Cloudy
8:52 AM80.6 °F73.4 °F79 %29.88 in10.0 miNE (40°)17.3 mphMostly Cloudy
8:55 AM81.0 °F72.9 °F76 %29.88 in10.0 miNE (40°)19.6 mphMostly Cloudy
9:42 AM82.4 °F73.4 °F74 %29.88 in10.0 miNE (40°)19.6 mphMostly Cloudy
9:55 AM82.2 °F73.8 °F75 %29.88 in10.0 miNE (40°)17.3 mph24.2 mphScattered Clouds
10:41 AM82.4 °F75.2 °F79 %29.88 in10.0 miNE (40°)19.6 mph24.2 mphMostly Cloudy
10:49 AM82.4 °F75.2 °F79 %29.88 in10.0 miNE (40°)18.4 mphScattered Clouds
10:55 AM82.6 °F74.1 °F75 %29.88 in10.0 miNE (40°)18.4 mphScattered Clouds
11:34 AM84.2 °F73.4 °F70 %29.86 in10.0 miNE (40°)17.3 mphMostly Cloudy
11:38 AM84.2 °F73.4 °F70 %29.86 in10.0 miNNE (30°)18.4 mphMostly Cloudy
11:55 AM83.5 °F73.9 °F73 %29.86 in10.0 miNE (40°)15.0 mphOvercast
11:58 AM82.4 °F73.4 °F74 %29.86 in10.0 miNE (40°)17.3 mphOvercast
12:08 PM82.4 °F73.4 °F74 %29.86 in10.0 miNE (40°)17.3 mphLight Drizzle
12:28 PM80.6 °F73.4 °F79 %29.86 in10.0 miENE (60°)17.3 mphLight Drizzle
12:30 PM82.4 °F73.4 °F74 %29.86 in10.0 miNE (50°)19.6 mphMostly Cloudy
12:55 PM84.0 °F74.5 °F73 %29.84 in10.0 miENE (60°)17.3 mph0.00 inScattered Clouds
1:01 PM82.4 °F75.2 °F79 %29.83 in10.0 miENE (70°)17.3 mphMostly Cloudy
1:03 PM82.4 °F73.4 °F74 %29.83 in10.0 miENE (60°)17.3 mphMostly Cloudy
1:04 PM82.4 °F73.4 °F74 %29.83 in10.0 miENE (70°)18.4 mphMostly Cloudy
1:07 PM82.4 °F73.4 °F74 %29.83 in10.0 miENE (70°)17.3 mph23.0 mphScattered Clouds
1:54 PM84.2 °F75.2 °F74 %29.82 in10.0 miENE (60°)16.1 mphMostly Cloudy
1:55 PM84.7 °F74.7 °F72 %29.82 in10.0 miENE (70°)16.1 mphMostly Cloudy
2:23 PM84.2 °F75.2 °F74 %29.82 in10.0 miENE (60°)16.1 mphMostly Cloudy
2:41 PM82.4 °F73.4 °F74 %29.81 in10.0 miENE (60°)18.4 mphScattered Clouds
2:53 PM82.4 °F75.2 °F79 %29.81 in10.0 miNE (50°)17.3 mphMostly Cloudy
2:55 PM82.8 °F74.5 °F76 %29.81 in10.0 miNE (50°)19.6 mph24.2 mphMostly Cloudy
3:08 PM82.4 °F73.4 °F74 %29.81 in10.0 miNE (50°)18.4 mphMostly Cloudy
3:10 PM82.4 °F73.4 °F74 %29.81 in10.0 miENE (60°)18.4 mphMostly Cloudy
3:31 PM84.2 °F73.4 °F70 %29.80 in10.0 miENE (60°)17.3 mphScattered Clouds
3:35 PM82.4 °F73.4 °F74 %29.80 in10.0 miENE (60°)18.4 mphMostly Cloudy
3:39 PM82.4 °F73.4 °F74 %29.80 in10.0 miENE (60°)16.1 mphScattered Clouds
3:40 PM82.4 °F73.4 °F74 %29.80 in10.0 miNE (50°)16.1 mphMostly Cloudy
3:48 PM82.4 °F73.4 °F74 %29.80 in10.0 miENE (60°)18.4 mph24.2 mphMostly Cloudy
3:55 PM83.1 °F73.8 °F73 %29.80 in10.0 miNE (50°)19.6 mph24.2 mphScattered Clouds
3:58 PM84.2 °F73.4 °F70 %29.80 in10.0 miNE (50°)17.3 mphMostly Cloudy
4:55 PM81.0 °F73.2 °F77 %29.81 in10.0 miNE (50°)17.3 mphMostly Cloudy
5:55 PM79.7 °F73.0 °F80 %29.83 in10.0 miENE (60°)17.3 mphOvercast
6:14 PM78.8 °F73.4 °F83 %29.83 in10.0 miENE (60°)16.1 mphMostly Cloudy
6:24 PM78.8 °F73.4 °F83 %29.84 in10.0 miENE (60°)17.3 mphMostly Cloudy
6:29 PM78.8 °F73.4 °F83 %29.84 in10.0 miENE (60°)15.0 mphMostly Cloudy
6:35 PM78.8 °F73.4 °F83 %29.84 in10.0 miNE (50°)17.3 mphOvercast
6:54 PM78.8 °F73.4 °F83 %29.85 in10.0 miNE (50°)13.8 mphMostly Cloudy
6:55 PM79.3 °F72.7 °F80 %29.85 in10.0 miNE (50°)13.8 mphMostly Cloudy
7:12 PM78.8 °F73.4 °F83 %29.85 in10.0 miNE (40°)13.8 mphMostly Cloudy
7:13 PM78.8 °F73.4 °F83 %29.85 in10.0 miNE (40°)13.8 mphMostly Cloudy
7:17 PM78.8 °F73.4 °F83 %29.85 in10.0 miNE (50°)16.1 mphMostly Cloudy
7:25 PM78.8 °F73.4 °F83 %29.86 in10.0 miENE (60°)17.3 mphMostly Cloudy
7:55 PM78.8 °F72.3 °F80 %29.87 in10.0 miNE (50°)13.8 mphMostly Cloudy
8:05 PM78.8 °F73.4 °F83 %29.87 in10.0 miNE (50°)16.1 mphOvercast
8:07 PM78.8 °F75.2 °F89 %29.87 in10.0 miNE (50°)15.0 mphMostly Cloudy
8:12 PM78.8 °F75.2 °F89 %29.87 in10.0 miNE (50°)12.7 mphMostly Cloudy
8:52 PM78.8 °F73.4 °F83 %29.88 in10.0 miENE (60°)16.1 mphMostly Cloudy
8:53 PM78.8 °F73.4 °F83 %29.88 in10.0 miENE (60°)13.8 mphMostly Cloudy
8:55 PM78.1 °F73.4 °F85 %29.88 in10.0 miNE (50°)12.7 mphMostly Cloudy
9:13 PM78.8 °F73.4 °F83 %29.89 in10.0 miNE (50°)16.1 mphScattered Clouds
9:18 PM78.8 °F73.4 °F83 %29.89 in10.0 miNE (50°)16.1 mphMostly Cloudy
9:27 PM78.8 °F73.4 °F83 %29.89 in10.0 miNE (50°)16.1 mphScattered Clouds
9:55 PM78.1 °F73.6 °F86 %29.90 in10.0 miNE (50°)16.1 mphMostly Cloudy
9:57 PM78.8 °F73.4 °F83 %29.90 in10.0 miNE (50°)17.3 mphMostly Cloudy
10:22 PM78.8 °F73.4 °F83 %29.90 in9.0 miENE (60°)18.4 mphRainRain
10:29 PM77.0 °F75.2 °F94 %29.90 in9.0 miNE (50°)15.0 mphRainLight Rain
10:33 PM77.0 °F75.2 °F94 %29.90 in10.0 miNE (50°)12.7 mphMostly Cloudy
10:38 PM77.0 °F73.4 °F89 %29.90 in10.0 miENE (60°)17.3 mphOvercast
10:39 PM77.0 °F73.4 °F89 %29.90 in10.0 miENE (60°)17.3 mphOvercast
10:55 PM77.5 °F73.6 °F88 %29.90 in10.0 miNE (50°)16.1 mph0.00 inOvercast
11:06 PM77.0 °F73.4 °F89 %29.90 in10.0 miNE (50°)16.1 mphOvercast
11:16 PM77.0 °F73.4 °F89 %29.90 in10.0 miNE (50°)15.0 mphMostly Cloudy
11:20 PM77.0 °F73.4 °F89 %29.90 in10.0 miNE (50°)17.3 mphMostly Cloudy
11:32 PM77.0 °F73.4 °F89 %29.90 in10.0 miENE (60°)18.4 mphMostly Cloudy
11:33 PM77.0 °F73.4 °F89 %29.89 in10.0 miENE (60°)16.1 mphMostly Cloudy
11:40 PM77.0 °F73.4 °F89 %29.89 in10.0 miNE (50°)16.1 mphScattered Clouds
11:55 PM77.0 °F73.4 °F89 %29.89 in10.0 miNE (40°)13.8 mphPartly Cloudy
Hourly data recorded from PGUA, located miles away from Umatac, Guam







STORIES FROM OUR PARTNERS